Lexington Weather

Lexington, Massachusetts, USA

29°F
12/12/2019 3:52pm 
  • Lexington Conditions: Partly cloudy
  • Temperature: 28.6°F / -1.9°CColder 0.7°F than last hour.
  • Dew Point: 20.1°FIncreased 0.3°Fsince last hour.
  • Relative Humidity: 70%Increased 3.0% since last hour.
  • Wind: Wind from SSW SSW 1 mph, 10-min avg: 1 mph, gust: 3 mph
  • Barometer: 30.65 in Steady
  • Visibility: 10 miles
  • Snow Today: 0.0 in
  •   

Regional Weather Roundup
for Boston / Norton, MA

        
000
ASUS41 KBOX 110600
RWRBOX

REGIONAL WEATHER ROUNDUP
NATIONAL WEATHER SERVICE BOSTON/NORTON MA
100 AM EST WED DEC 11 2019

NOTE:  "FAIR" INDICATES FEW OR NO CLOUDS BELOW 12,000 FEET WITH NO 
SIGNIFICANT WEATHER AND/OR OBSTRUCTIONS TO VISIBILITY.

MAZALL-110700-
EASTERN MASSACHUSETTS
  
CITY           SKY/WX    TMP DP  RH WIND       PRES   REMARKS
BOSTON         LGT RAIN  41  34  76 NW8       30.04F                  
6HR MIN TEMP:  41; 6HR MAX TEMP:  57; 6HR PCP:  0.08;                

BEVERLY        LGT RAIN  38  34  85 NW8       30.02R                  
LAWRENCE       LGT RAIN  36  32  85 NW12      30.06R WCI  28          
BEDFORD        CLOUDY    38  33  82 NW8       30.03R                  
BLUE HILL        N/A     36  35  96 NW8       30.01R WCI  30          
NORWOOD        LGT RAIN  41  35  79 NW3       30.04S                  
MARSHFIELD     NOT AVBL                                               
PLYMOUTH       LGT RAIN  40  37  89 NW8       30.03F                  
TAUNTON        LGT RAIN  41  36  82 NW3       30.04R                  
NEW BEDFORD    LGT RAIN  41  37  86 VRB5      30.04R                  
$$

MAZALL-110700-
CAPE COD AND THE ISLANDS
  
CITY           SKY/WX    TMP DP  RH WIND       PRES   REMARKS
FALMOUTH       DRIZZLE   41  39  93 N6        30.04R                  
HYANNIS        NOT AVBL                                               
CHATHAM        LGT RAIN N/A N/A N/A NW3       30.04R                  
PROVINCETOWN   LGT RAIN  41  39  93 NW15G23   30.05F                  
NANTUCKET      LGT RAIN  45  42  89 N8        30.03S                  
MARTHAS VNYRD  LGT RAIN  42  39  89 N12       30.04R                  
$$
 
MAZALL-110700-
CENTRAL AND WESTERN MASSACHUSETTS
  
CITY           SKY/WX    TMP DP  RH WIND       PRES   REMARKS
WORCESTER      LGT SNOW  32  30  92 NW7       30.01R FOG     WCI  26  
6HR MIN TEMP:  32; 6HR MAX TEMP:  41; 6HR PCP:  0.04;                

FITCHBURG      FLURRIES  35  32  88 W3        30.05R                  
ORANGE         LGT SNOW  35  31  85 NW5       30.04S FOG     WCI  31  
SPRINGFIELD    FLURRIES  34  33  98 CALM      30.05S                  
WESTFIELD      LGT SNOW  34  30  85 N7        30.06S FOG     WCI  28  
NORTH ADAMS    CLOUDY    33  25  72 W13       30.05F WCI  24          
PITTSFIELD     LGT SNOW  30  25  81 NW10      30.01F WCI  21          
$$
 
RIZALL-110700-
RHODE ISLAND
  
CITY           SKY/WX    TMP DP  RH WIND       PRES   REMARKS
PROVIDENCE     LGT RAIN  39  35  86 W8        30.08R                  
6HR MIN TEMP:  39; 6HR MAX TEMP:  55; 6HR PCP:  0.01;                

NEWPORT        LGT RAIN  40  36  86 N8        30.05R                  
BLOCK ISLAND   LGT RAIN  41  37  86 NW10      30.06R                  
SMITHFIELD     LGT RAIN  36  35  96 NW5       30.05R                  
WESTERLY       CLOUDY    41  35  79 NW7       30.07R                  
$$
 
CTZALL-110700-
CONNECTICUT
  
CITY           SKY/WX    TMP DP  RH WIND       PRES   REMARKS
BRADLEY INTL   FLURRIES  34  32  92 N5        30.06R WCI  30          
6HR MIN TEMP:  34; 6HR MAX TEMP:  42; 6HR PCP:  0.06;                

HARTFORD       MIX PCPN  36  33  89 N6        30.06F WCI  31          
BRIDGEPORT     LGT RAIN  40  35  83 N9        30.07R                  
DANBURY        LGT SNOW  34  32  92 N5        30.08R FOG     WCI  30  
GROTON         NOT AVBL                                               
NEW HAVEN      LGT RAIN  41  36  82 N13       30.06R                  
CHESTER        LGT RAIN  36  36 100 N8        30.06R WCI  29          
MERIDEN        LGT RAIN  36  33  89 VRB3      30.07S                  
WILLIMANTIC    LGT RAIN  36  33  89 NW6       30.08R WCI  31          
OXFORD         LGT SNOW  33  32  96 N5        30.04R FOG     WCI  29  
$$

MEZ002-015-021-024-NHZ003-005-008-011-012-014-VTZ005-008-110700-
NORTHERN NEW ENGLAND
  
CITY           SKY/WX    TMP DP  RH WIND       PRES   REMARKS
PORTLAND ME    LGT RAIN  38  33  82 NW9       30.02R WCI  31          
6HR MIN TEMP:  38; 6HR MAX TEMP:  52; 6HR PCP:  0.07;                

BANGOR ME      CLOUDY    37  27  67 NW12      29.97R WCI  29          
CONCORD NH     CLOUDY    35  27  72 W9G21     30.03R WCI  28          
MANCHESTER NH  LGT SNOW  35  32  88 W9        30.04R FOG     WCI  28  
NASHUA NH      LGT SNOW  34  34 100 NW13      30.06R FOG     WCI  25  
PORTSMOUTH NH  LGT RAIN  36  33  90 W10G20    30.02R WCI  28          
JAFFREY NH     LGT SNOW  33  30  88 VRB6      30.01R FOG     WCI  28  
KEENE NH       LGT SNOW  32  32 100 NW3       30.05R FOG              
BURLINGTON VT  FAIR      26  14  60 NW18G24   30.12R WCI  13          
MT. WASHINGTON NOT AVBL                                               
$$

NYZ052-076-110700-
EASTERN NEW YORK
  
CITY           SKY/WX    TMP DP  RH WIND       PRES   REMARKS
ALBANY         CLOUDY    34  20  56 NW16G24   30.12R WCI  24          
6HR MIN TEMP:  34; 6HR MAX TEMP:  40; 6HR PCP: TRACE;                

NEW YORK CITY  LGT RAIN  40  34  79 NW14      30.10R                  
6HR MIN TEMP:  40; 6HR MAX TEMP:  55; 6HR PCP:  0.05;                

$$
 
ANZALL-110700-
MARINE OBSERVATIONS
  
STATION/POSITION TIME  TEMP    WIND        PRES    VSBY  WAVE
                       AIR SEA DIR/SP/G                  HT/PER
                 (UTC) (F)     (DEG/KT/KT) (MB)    (MI)  (FT/S)
BOSTON BUOY      0450   42 48  310/ 17/ 21 1015.9          4/11
BUZZARDS BAY     0500   44     320/ 12/ 13 1018.2R
NANTUCKET SOUND  0540      43              1017.1R
MASS BAY-STELLWA 0504   41 46  330/ 12/ 14 1014.7R  1 1/2  4/11
ISLE OF SHOALS   0500   38     310/ 16/ 20 1015.7R
S OF BLOCK IS    0530      53                N/A          10/10
$$

......................KEY.........................
  SKY/WX - SKY CONDITION/PRESENT WEATHER
  TMP    - TEMPERATURE IN FAHRENHEIT
  DWPT   - DEWPOINT IN FAHRENHEIT
  RH     - RELATIVE HUMIDITY IN PERCENT
  WIND   - DIRECTION AND SPEED IN MPH
  PRES   - MEAN SEA LEVEL PRESSURE IN INCHES OF HG
  WCI    - WIND CHILL INDEX
  VSB    - VISIBILITY IN MILES
  HX     - HEAT INDEX
  TC     - TEMPERATURE IN CELSIUS
  VRB    - VARIABLE WIND DIRECTION
  N/A    - NOT AVAILABLE
  
      

Other recent Regional Weather Roundups

Thu Dec 12, 3:10pm

Thu Dec 12, 3:00pm

Thu Dec 12, 2:10pm

Thu Dec 12, 2:01pm

Thu Dec 12, 1:10pm

Thu Dec 12, 1:00pm

Thu Dec 12, 12:10pm

Thu Dec 12, 12:00pm

Thu Dec 12, 11:10am

Thu Dec 12, 11:00am

Thu Dec 12, 10:10am

Thu Dec 12, 8:10am

Thu Dec 12, 8:00am

Thu Dec 12, 7:10am

Thu Dec 12, 7:00am

Thu Dec 12, 6:10am

Thu Dec 12, 6:00am

Thu Dec 12, 5:10am

Thu Dec 12, 5:00am

Thu Dec 12, 4:10am

Thu Dec 12, 4:00am

Thu Dec 12, 3:10am

Thu Dec 12, 3:00am

Thu Dec 12, 2:10am

Thu Dec 12, 2:00am

Thu Dec 12, 1:10am

Thu Dec 12, 1:00am

Thu Dec 12, 12:10am

Thu Dec 12, 12:00am

Wed Dec 11, 11:10pm

Wed Dec 11, 11:00pm

Wed Dec 11, 10:10pm

Wed Dec 11, 10:00pm

Wed Dec 11, 9:10pm

Wed Dec 11, 9:00pm

Wed Dec 11, 8:10pm

Wed Dec 11, 8:00pm

Wed Dec 11, 7:10pm

Wed Dec 11, 7:00pm

Wed Dec 11, 6:10pm

Wed Dec 11, 6:00pm

Wed Dec 11, 5:10pm

Wed Dec 11, 5:01pm

Wed Dec 11, 4:10pm

Wed Dec 11, 4:00pm

Wed Dec 11, 3:10pm

Wed Dec 11, 3:01pm

Wed Dec 11, 2:10pm

Wed Dec 11, 2:00pm

Wed Dec 11, 1:10pm

Wed Dec 11, 1:00pm

Wed Dec 11, 12:10pm

Wed Dec 11, 12:00pm

Wed Dec 11, 11:10am

Wed Dec 11, 11:00am

Wed Dec 11, 10:10am

Wed Dec 11, 10:00am

Wed Dec 11, 9:10am

Wed Dec 11, 9:00am

Wed Dec 11, 8:10am

Wed Dec 11, 8:00am

Wed Dec 11, 7:10am

Wed Dec 11, 7:00am

Wed Dec 11, 6:10am

Wed Dec 11, 6:00am

Wed Dec 11, 5:10am

Wed Dec 11, 5:00am

Wed Dec 11, 4:10am

Wed Dec 11, 4:00am

Wed Dec 11, 3:10am

Wed Dec 11, 3:01am

Wed Dec 11, 2:10am

Wed Dec 11, 2:01am

Wed Dec 11, 1:10am

Wed Dec 11, 12:10am

Wed Dec 11, 12:00am

Tue Dec 10, 11:10pm

Tue Dec 10, 11:00pm

Tue Dec 10, 10:10pm

Tue Dec 10, 10:00pm

Tue Dec 10, 9:10pm

Tue Dec 10, 9:01pm

Tue Dec 10, 8:10pm

Tue Dec 10, 8:00pm

Tue Dec 10, 7:10pm

Tue Dec 10, 7:01pm

Tue Dec 10, 6:10pm

Tue Dec 10, 6:01pm

Tue Dec 10, 5:10pm

Tue Dec 10, 5:00pm

Tue Dec 10, 4:10pm

Tue Dec 10, 4:01pm

Tue Dec 10, 3:10pm

Tue Dec 10, 3:01pm

Tue Dec 10, 2:10pm

Tue Dec 10, 2:01pm

Tue Dec 10, 1:10pm

Tue Dec 10, 1:00pm

Tue Dec 10, 12:10pm

Tue Dec 10, 12:00pm

Tue Dec 10, 11:10am

Tue Dec 10, 11:00am

Tue Dec 10, 10:10am

Tue Dec 10, 10:00am

Tue Dec 10, 9:10am

Tue Dec 10, 9:01am

Tue Dec 10, 8:10am

Tue Dec 10, 8:00am

Tue Dec 10, 7:10am

Tue Dec 10, 7:00am

Tue Dec 10, 6:10am

Tue Dec 10, 6:00am

Tue Dec 10, 5:10am

Tue Dec 10, 5:00am

Tue Dec 10, 4:10am

Tue Dec 10, 4:00am

Tue Dec 10, 3:10am

Tue Dec 10, 3:00am

Tue Dec 10, 2:10am

Tue Dec 10, 2:01am

Tue Dec 10, 1:10am

Tue Dec 10, 1:00am

Tue Dec 10, 12:10am

Tue Dec 10, 12:01am

Mon Dec 9, 11:10pm

Mon Dec 9, 11:01pm

Mon Dec 9, 10:10pm

Mon Dec 9, 10:00pm

Mon Dec 9, 9:10pm

Mon Dec 9, 9:01pm

Mon Dec 9, 8:10pm

Mon Dec 9, 8:01pm

Mon Dec 9, 7:10pm

Mon Dec 9, 7:00pm

Mon Dec 9, 6:10pm

Mon Dec 9, 6:00pm

Mon Dec 9, 5:10pm

Mon Dec 9, 5:01pm

Mon Dec 9, 4:10pm

Mon Dec 9, 4:01pm

Meta data:

ID: 7734bdf7-c6ef-4139-8f68-916c29cd7e0a
Link: https://api.weather.gov/products/7734bdf7-c6ef-4139-8f68-916c29cd7e0a